St. Cloud, MN

2:54 PM CST on November 12, 2019 (GMT -0600)
Saint Cloud Regional

Weather History for KSTC - May, 2019

Change the Weather History Date:

Thursday, May 30, 2019

  Actual Average Record
Temperature  
Mean Temperature 66 °F 61 °F  
Max Temperature 82 °F 73 °F 99 °F (1934)
Min Temperature 48 °F 49 °F 34 °F (1947)
Degree Days  
Heating Degree Days 0 6  
Month to date heating degree days 409 282  
Since 1 July heating degree days 9207 8449  
Cooling Degree Days 0 1  
Month to date cooling degree days 1 22  
Year to date cooling degree days 1 24  
Growing Degree Days 16 (Base 50)    
Moisture  
Dew Point 49 °F    
Average Humidity 59    
Maximum Humidity 100    
Minimum Humidity 24    
Precipitation  
Precipitation 0.00 in 0.11 in 2.01 in (1954)
Month to date precipitation 6.33 2.85  
Year to date precipitation 13.68 8.21  
Snow  
Snow 0.00 in 0.00 in 0.00 in ()
Month to date snowfall 0.4 0.0  
Since 1 July snowfall 68.9 45.7  
Snow Depth 0.00 in    
Sea Level Pressure  
Sea Level Pressure 29.77 in    
Wind  
Wind Speed 3 mph ()    
Max Wind Speed 14 mph    
Max Gust Speed 19 mph    
Visibility 9.9 miles    
Events      
T = Trace of Precipitation, MM = Missing Value Source: Averaged Metar Reports

Daily Weather History Graph

Daily Weather History Graph

Search for Another Location

Airport or City:

Astronomy

May. 30, 2019 Rise Set
Actual Time 5:32 AM CDT 8:56 PM CDT
Civil Twilight 4:55 AM CDT 9:32 PM CDT
Nautical Twilight 4:07 AM CDT 10:21 PM CDT
Astronomical Twilight 3:06 AM CDT 11:22 PM CDT
Moon 3:54 AM CDT (5/30) 4:50 PM CDT (5/30)
Length of Visible Light 16h 37m
Length of Day
15h 23m
Waning Crescent, 15% of the Moon is Illuminated
May 30
Waning Crescent
Jun 3
New
Jun 10
First Quarter
Jun 17
Full
Jun 25
Last Quarter

Hourly Weather History & Observations

Time (CDT) Temp. Dew Point Humidity Pressure Visibility Wind Dir Wind Speed Gust Speed Precip Events Conditions
12:53 AM 54.0 °F 51.1 °F 90% 29.75 in 10.0 mi Calm Calm - N/A   Clear
1:53 AM 53.1 °F 51.1 °F 93% 29.75 in 10.0 mi Calm Calm - N/A   Clear
2:53 AM 51.1 °F 50.0 °F 96% 29.75 in 10.0 mi SSE 4.6 mph - N/A   Clear
3:53 AM 51.1 °F 48.9 °F 92% 29.74 in 10.0 mi Calm Calm - N/A   Clear
4:53 AM 48.9 °F 48.9 °F 100% 29.74 in 8.0 mi West 3.5 mph - N/A   Clear
5:53 AM 50.0 °F 48.9 °F 96% 29.75 in 10.0 mi Calm Calm - N/A   Clear
6:53 AM 52.0 °F 50.0 °F 93% 29.77 in 10.0 mi Calm Calm - N/A   Clear
7:53 AM 55.9 °F 52.0 °F 87% 29.79 in 10.0 mi Calm Calm - N/A   Clear
8:53 AM 62.1 °F 52.0 °F 70% 29.79 in 10.0 mi Calm Calm - N/A   Clear
9:53 AM 66.0 °F 51.1 °F 59% 29.80 in 10.0 mi Calm Calm - N/A   Clear
10:53 AM 72.0 °F 52.0 °F 49% 29.80 in 10.0 mi Calm Calm - N/A   Clear
11:53 AM 75.0 °F 51.1 °F 43% 29.80 in 10.0 mi Variable 3.5 mph - N/A   Clear
12:53 PM 79.0 °F 45.0 °F 30% 29.79 in 10.0 mi WSW 6.9 mph - N/A   Clear
1:53 PM 80.1 °F 43.0 °F 27% 29.79 in 10.0 mi SW 5.8 mph - N/A   Clear
2:53 PM 81.0 °F 43.0 °F 26% 29.78 in 10.0 mi West 5.8 mph - N/A   Clear
3:53 PM 82.9 °F 43.0 °F 24% 29.78 in 10.0 mi SW 9.2 mph - N/A   Clear
4:53 PM 82.0 °F 45.0 °F 27% 29.77 in 10.0 mi SW 9.2 mph - N/A   Clear
5:53 PM 82.0 °F 46.0 °F 28% 29.77 in 10.0 mi SW 9.2 mph - N/A   Clear
6:53 PM 81.0 °F 48.0 °F 31% 29.75 in 10.0 mi SW 9.2 mph - N/A   Clear
7:53 PM 78.1 °F 48.0 °F 35% 29.76 in 10.0 mi SSW 5.8 mph - N/A   Clear
8:53 PM 70.0 °F 52.0 °F 53% 29.76 in 10.0 mi South 5.8 mph - N/A   Clear
9:53 PM 69.1 °F 51.1 °F 53% 29.76 in 10.0 mi South 6.9 mph - N/A   Clear
10:53 PM 66.9 °F 52.0 °F 59% 29.77 in 10.0 mi South 5.8 mph - N/A   Clear
11:53 PM 68.0 °F 52.0 °F 56% 29.76 in 10.0 mi SSW 8.1 mph - N/A   Clear